When you browse on this site, cookies collect data to enhance your experience and personalize the content and advertising you see.
Visit our Privacy Policy to learn more. By continuing to use the site, you agree to this use of cookies and data.
  • In Österreich
  • Länderverzeichnis
  • Für 7 Tage
  • Wassertemperatur
  • Wetterkarte
  • News
  • Widgets
  • user-avatar
    Anmelden

    Stündliche Wetter Neuquén

    Heute, 7 Juni, Sonntag

    Zeit Temperatur Niederschläge Wind Luftdruck Luftfeuchtigkeit
    00:00 +8°C° 0 mm 4 m/S 733 mmHg 59%
    01:00 +8°C° 0 mm 3 m/S 733 mmHg 62%
    02:00 +8°C° 0 mm 3 m/S 733 mmHg 63%
    03:00 +8°C° 0 mm 3 m/S 734 mmHg 65%
    04:00 +7°C° 0 mm 3 m/S 734 mmHg 67%
    05:00 +7°C° 0 mm 2 m/S 734 mmHg 68%
    06:00 +7°C° 0 mm 2 m/S 735 mmHg 69%
    07:00 +7°C° 0 mm 1 m/S 735 mmHg 70%
    08:00 +8°C° 0 mm 2 m/S 735 mmHg 65%
    09:00 +9°C° 0 mm 2 m/S 736 mmHg 59%
    10:00 +12°C° 0 mm 2 m/S 736 mmHg 54%
    11:00 +12°C° 0 mm 3 m/S 735 mmHg 51%
    12:00 +12°C° 0 mm 3 m/S 735 mmHg 48%
    13:00 +13°C° 0 mm 3 m/S 734 mmHg 45%
    14:00 +13°C° 0 mm 3 m/S 734 mmHg 46%
    15:00 +13°C° 0 mm 3 m/S 734 mmHg 47%
    16:00 +13°C° 0 mm 3 m/S 733 mmHg 48%
    17:00 +12°C° 0 mm 3 m/S 733 mmHg 51%
    18:00 +11°C° 0 mm 3 m/S 733 mmHg 54%
    19:00 +10°C° 0 mm 3 m/S 733 mmHg 56%
    20:00 +10°C° 0 mm 3 m/S 733 mmHg 58%
    21:00 +9°C° 0 mm 3 m/S 733 mmHg 59%
    22:00 +9°C° 0 mm 2 m/S 733 mmHg 60%
    23:00 +9°C° 0 mm 2 m/S 732 mmHg 60%

    Morgen, 8 Juni, Montag

    Zeit Temperatur Niederschläge Wind Luftdruck Luftfeuchtigkeit
    00:00 +8°C° 0 mm 2 m/S 732 mmHg 61%
    01:00 +8°C° 0 mm 2 m/S 732 mmHg 61%
    02:00 +8°C° 0 mm 2 m/S 732 mmHg 62%
    03:00 +7°C° 0 mm 2 m/S 732 mmHg 64%
    04:00 +7°C° 0 mm 2 m/S 731 mmHg 65%
    05:00 +7°C° 0 mm 2 m/S 731 mmHg 64%
    06:00 +7°C° 0 mm 2 m/S 732 mmHg 64%
    07:00 +7°C° 0 mm 3 m/S 732 mmHg 64%
    08:00 +8°C° 0 mm 5 m/S 732 mmHg 56%
    09:00 +11°C° 0 mm 6 m/S 733 mmHg 47%
    10:00 +13°C° 0 mm 8 m/S 733 mmHg 39%
    11:00 +13°C° 0 mm 8 m/S 733 mmHg 37%
    12:00 +15°C° 0 mm 8 m/S 733 mmHg 35%
    13:00 +15°C° 0 mm 7 m/S 732 mmHg 32%
    14:00 +15°C° 0 mm 7 m/S 732 mmHg 35%
    15:00 +14°C° 0 mm 6 m/S 732 mmHg 37%
    16:00 +13°C° 0 mm 5 m/S 732 mmHg 39%
    17:00 +12°C° 0 mm 4 m/S 733 mmHg 43%
    18:00 +11°C° 0 mm 3 m/S 733 mmHg 46%
    19:00 +9°C° 0 mm 3 m/S 733 mmHg 49%
    20:00 +9°C° 0 mm 3 m/S 734 mmHg 51%
    21:00 +8°C° 0 mm 2 m/S 734 mmHg 53%
    22:00 +8°C° 0 mm 2 m/S 734 mmHg 55%
    23:00 +8°C° 0 mm 2 m/S 734 mmHg 56%

    übermorgen, 9 Juni, Dienstag

    Zeit Temperatur Niederschläge Wind Luftdruck Luftfeuchtigkeit
    00:00 +7°C° 0 mm 2 m/S 734 mmHg 57%
    01:00 +7°C° 0 mm 2 m/S 734 mmHg 58%
    02:00 +7°C° 0 mm 2 m/S 733 mmHg 58%
    03:00 +7°C° 0 mm 2 m/S 733 mmHg 59%
    04:00 +6°C° 0 mm 2 m/S 733 mmHg 60%
    05:00 +7°C° 0 mm 2 m/S 733 mmHg 61%
    06:00 +7°C° 0 mm 3 m/S 733 mmHg 61%
    07:00 +7°C° 0 mm 3 m/S 733 mmHg 62%
    08:00 +7°C° 0 mm 4 m/S 732 mmHg 55%
    09:00 +9°C° 0 mm 6 m/S 732 mmHg 49%
    10:00 +11°C° 0 mm 7 m/S 732 mmHg 43%
    11:00 +12°C° 0 mm 8 m/S 731 mmHg 39%
    12:00 +13°C° 0 mm 9 m/S 730 mmHg 35%
    13:00 +14°C° 0 mm 10 m/S 730 mmHg 32%
    14:00 +13°C° 0 mm 10 m/S 729 mmHg 31%
    15:00 +12°C° 0 mm 9 m/S 729 mmHg 31%
    16:00 +12°C° 0 mm 9 m/S 729 mmHg 31%
    17:00 +11°C° 0 mm 9 m/S 729 mmHg 33%
    18:00 +10°C° 0 mm 9 m/S 729 mmHg 36%
    19:00 +8°C° 0 mm 9 m/S 729 mmHg 38%
    20:00 +9°C° 0 mm 8 m/S 729 mmHg 39%
    21:00 +9°C° 0 mm 8 m/S 729 mmHg 41%
    22:00 +9°C° 0 mm 7 m/S 729 mmHg 42%
    23:00 +9°C° 0 mm 8 m/S 729 mmHg 42%

    10 Juni, Mittwoch

    Zeit Temperatur Niederschläge Wind Luftdruck Luftfeuchtigkeit
    00:00 +9°C° 0 mm 8 m/S 730 mmHg 43%
    01:00 +9°C° 0 mm 8 m/S 730 mmHg 43%
    02:00 +7°C° 0 mm 8 m/S 730 mmHg 45%
    03:00 +8°C° 0 mm 7 m/S 730 mmHg 46%
    04:00 +8°C° 0 mm 7 m/S 731 mmHg 47%
    05:00 +8°C° 0 mm 6 m/S 731 mmHg 48%
    06:00 +8°C° 0 mm 6 m/S 731 mmHg 49%
    07:00 +8°C° 0 mm 5 m/S 731 mmHg 50%
    08:00 +10°C° 0 mm 7 m/S 731 mmHg 45%
    09:00 +11°C° 0 mm 8 m/S 731 mmHg 40%
    10:00 +13°C° 0 mm 9 m/S 731 mmHg 36%
    11:00 +15°C° 0 mm 9 m/S 731 mmHg 33%
    12:00 +15°C° 0 mm 8 m/S 730 mmHg 31%
    13:00 +16°C° 0 mm 8 m/S 730 mmHg 28%
    14:00 +15°C° 0 mm 7 m/S 729 mmHg 28%
    15:00 +15°C° 0 mm 6 m/S 729 mmHg 29%
    16:00 +14°C° 0 mm 5 m/S 729 mmHg 29%
    17:00 +13°C° 0 mm 5 m/S 728 mmHg 31%
    18:00 +13°C° 0 mm 5 m/S 728 mmHg 33%
    19:00 +12°C° 0 mm 4 m/S 728 mmHg 35%
    20:00 +12°C° 0 mm 4 m/S 728 mmHg 36%
    21:00 +12°C° 0 mm 5 m/S 727 mmHg 38%
    22:00 +10°C° 0 mm 5 m/S 727 mmHg 39%
    23:00 +10°C° 0 mm 5 m/S 727 mmHg 39%

    11 Juni, Donnerstag

    Zeit Temperatur Niederschläge Wind Luftdruck Luftfeuchtigkeit
    00:00 +11°C° 0 mm 4 m/S 727 mmHg 38%
    01:00 +11°C° 0 mm 4 m/S 726 mmHg 38%
    02:00 +10°C° 0 mm 4 m/S 726 mmHg 38%
    03:00 +9°C° 0 mm 5 m/S 726 mmHg 39%
    04:00 +9°C° 0 mm 5 m/S 725 mmHg 39%
    05:00 +9°C° 0 mm 5 m/S 725 mmHg 40%
    06:00 +9°C° 0 mm 6 m/S 725 mmHg 41%
    07:00 +9°C° 0 mm 7 m/S 725 mmHg 43%
    08:00 +11°C° 0 mm 9 m/S 725 mmHg 41%
    09:00 +12°C° 0 mm 12 m/S 724 mmHg 39%
    10:00 +14°C° 0 mm 14 m/S 724 mmHg 38%
    11:00 +15°C° 0 mm 13 m/S 724 mmHg 36%
    12:00 +17°C° 0 mm 13 m/S 723 mmHg 35%
    13:00 +18°C° 0 mm 12 m/S 723 mmHg 33%
    14:00 +18°C° 0 mm 11 m/S 722 mmHg 34%
    15:00 +17°C° 0 mm 10 m/S 722 mmHg 35%
    16:00 +17°C° 0 mm 9 m/S 722 mmHg 36%
    17:00 +16°C° 0 mm 10 m/S 722 mmHg 41%
    18:00 +13°C° 0 mm 10 m/S 723 mmHg 47%
    19:00 +12°C° 0 mm 10 m/S 723 mmHg 52%
    20:00 +12°C° 0.1 mm 9 m/S 724 mmHg 56%
    21:00 +11°C° 0.1 mm 8 m/S 725 mmHg 60%
    22:00 +10°C° 0.1 mm 6 m/S 725 mmHg 64%
    23:00 +10°C° 0 mm 7 m/S 726 mmHg 62%

    12 Juni, Freitag

    Zeit Temperatur Niederschläge Wind Luftdruck Luftfeuchtigkeit
    00:00 +9°C° 0 mm 8 m/S 726 mmHg 60%
    01:00 +9°C° 0 mm 8 m/S 726 mmHg 59%
    02:00 +9°C° 0 mm 8 m/S 727 mmHg 58%
    03:00 +8°C° 0 mm 7 m/S 727 mmHg 56%
    04:00 +8°C° 0 mm 7 m/S 727 mmHg 55%
    05:00 +8°C° 0 mm 7 m/S 728 mmHg 56%
    06:00 +6°C° 0 mm 7 m/S 729 mmHg 58%
    07:00 +6°C° 0 mm 7 m/S 730 mmHg 59%
    08:00 +7°C° 0 mm 8 m/S 731 mmHg 53%
    09:00 +9°C° 0 mm 8 m/S 732 mmHg 48%
    10:00 +10°C° 0 mm 9 m/S 733 mmHg 43%
    11:00 +10°C° 0 mm 9 m/S 733 mmHg 39%
    12:00 +11°C° 0 mm 8 m/S 733 mmHg 36%
    13:00 +11°C° 0 mm 8 m/S 734 mmHg 33%
    14:00 +11°C° 0 mm 7 m/S 734 mmHg 35%
    15:00 +11°C° 0 mm 6 m/S 734 mmHg 37%
    16:00 +10°C° 0 mm 6 m/S 735 mmHg 38%
    17:00 +9°C° 0 mm 6 m/S 735 mmHg 42%
    18:00 +9°C° 0 mm 5 m/S 736 mmHg 45%
    19:00 +8°C° 0 mm 5 m/S 736 mmHg 49%
    20:00 +7°C° 0 mm 5 m/S 737 mmHg 50%
    21:00 +7°C° 0 mm 6 m/S 737 mmHg 52%
    22:00 +7°C° 0 mm 6 m/S 738 mmHg 53%
    23:00 +5°C° 0 mm 6 m/S 738 mmHg 54%
    Mehr zeigen